{"data":{"norad_id":53870,"intl_designator":"2022-114BE","name":"STARLINK-4732","alt_names":[],"object_type":"PAYLOAD","status":"ACTIVE","operator":null,"country":"US","launch_date":"2022-09-19","launch_site_code":"AFETR","launch_vehicle":null,"mission":null,"orbit_class":"UNKNOWN","rcs_meters":null,"size_class":null,"mass_kg":null,"dimensions":null,"purposes":["comms"],"wikipedia_slug":null,"has_3d_model":false,"image_url":null,"decayed_at":null,"tle_current":{"epoch":"2026-05-25T01:36:23.585760Z","epoch_age_seconds":76241,"freshness":"FRESH","line1":"1 53870U 22114BE  26145.06693965  .00000310  00000+0  37541-4 0  9992","line2":"2 53870  53.2142 281.1809 0001295  86.3143 273.7998 15.08835387204923","mean_motion":15.08835387,"eccentricity":0.0001295,"inclination_deg":53.2142,"raan_deg":281.1809,"arg_perigee_deg":86.3143,"mean_anomaly_deg":273.7998,"bstar":3.7541e-5,"rev_number":20492,"period_min":95.437846461378,"perigee_km":538.86162175923,"apogee_km":540.65335643191,"semimajor_km":6917.8944890956,"source":"CELESTRAK","updated_at":"2026-05-25T13:38:17.580646Z"}}}